EW9431 North Vancouver CA current weather conditions

sailwx.info

Wind from 320

Air temperature 16.1° C
Dewpoint 11.9° C

Last reported at 2020-Jul-08 04:00 UTC.
Time now 2020-Jul-08 04:32 UTC

Location: N 49°21' W 123°05'.
View on Google Maps.

See reports from other nearby stations

  
Tides and Currents Weather Stations Pressure Air Temp Water Temp Dewpoint Dewpoint Depression Visibility Wind Speed Wind Dir Waves Ship Positions
date/time (UTC)wind fromknots sea level pressurealtimeterstation pressurevisibilityair tempwater tempwave heightnotes
2020-Jul-08 04:00 320 16.1
2020-Jul-08 03:55 320 16.1
2020-Jul-08 03:50 320 16.1
2020-Jul-08 03:40 320 16.1
2020-Jul-08 03:35 320 16.1
2020-Jul-08 03:25 320 16.1
2020-Jul-08 03:15 320 16.1
2020-Jul-08 03:05 320 16.1
2020-Jul-08 02:55 320 16.1
2020-Jul-08 02:45 320 16.1
2020-Jul-08 02:40 320 16.1
2020-Jul-08 02:15 320 16.1
2020-Jul-08 02:10 320 16.1
2020-Jul-08 02:05 320 16.1
2020-Jul-08 02:00 320 16.1
2020-Jul-08 01:45 360 16.1
2020-Jul-08 01:40 360 16.1
2020-Jul-08 01:25 360 16.1
2020-Jul-08 01:20 010 16.1
2020-Jul-08 01:10 317 16.1
2020-Jul-08 01:00 226 16.1
2020-Jul-08 00:45 226 16.1
2020-Jul-08 00:35 229 16.1
2020-Jul-08 00:30 229 16.7
2020-Jul-08 00:25 229 16.7
2020-Jul-08 00:15 218 16.7
2020-Jul-08 00:10 216 16.7
2020-Jul-08 00:00 287 16.7
2020-Jul-07 23:55 213 16.7
2020-Jul-07 23:45 221 17.2
2020-Jul-07 23:35 198 17.2
2020-Jul-07 23:30 258 17.2
2020-Jul-07 23:20 236 17.2
2020-Jul-07 23:10 207 17.2
2020-Jul-07 23:00 227 17.8
2020-Jul-07 22:50 164 17.8
2020-Jul-07 22:45 143 17.8
2020-Jul-07 22:35 178 17.8
2020-Jul-07 22:20 199 17.8
2020-Jul-07 22:15 153 17.8
2020-Jul-07 22:00 185 18.3
2020-Jul-07 21:55 183 18.3
2020-Jul-07 21:45 154 17.8
2020-Jul-07 21:40 197 17.8
2020-Jul-07 21:30 103 17.8
2020-Jul-07 21:00 157 17.8
2020-Jul-07 20:50 202 17.8
2020-Jul-07 20:40 154 17.8
2020-Jul-07 20:35 199 17.8
2020-Jul-07 20:25 166 1 gusting 9 17.8
2020-Jul-07 17:10 149 14.4
2020-Jul-07 17:05 211 14.4
2020-Jul-07 16:55 041 14.4
2020-Jul-07 16:40 085 13.9
2020-Jul-07 16:30 253 13.9
2020-Jul-07 16:25 203 13.9
2020-Jul-07 16:20 139 13.3
2020-Jul-07 16:15 162 13.3
2020-Jul-07 16:00 195 13.3
2020-Jul-07 13:10 049 12.2
2020-Jul-07 13:00 036 12.2
2020-Jul-07 12:50 033 12.2
2020-Jul-07 12:40 028 12.8
2020-Jul-07 12:30 047 12.8
2020-Jul-07 12:15 103 13.3
2020-Jul-07 12:05 173 13.3
2020-Jul-07 11:50 117 13.9
2020-Jul-07 11:45 027 13.9
2020-Jul-07 11:40 131 13.9
2020-Jul-07 11:30 161 13.9
2020-Jul-07 11:25 143 13.9
2020-Jul-07 11:15 174 13.9
2020-Jul-07 11:10 151 14.4
2020-Jul-07 11:00 167 14.4
2020-Jul-07 10:50 059 14.4
2020-Jul-07 10:40 059 14.4
2020-Jul-07 10:30 059 14.4
2020-Jul-07 10:25 059 14.4
2020-Jul-07 10:15 189 14.4
2020-Jul-07 10:00 206 14.4
2020-Jul-07 09:45 158 14.4
2020-Jul-07 09:35 047 14.4
2020-Jul-07 09:25 150 14.4
2020-Jul-07 09:15 142 14.4
2020-Jul-07 09:00 347 14.4
2020-Jul-07 08:30 034 13.9
2020-Jul-07 08:15 034 13.9
2020-Jul-07 08:00 035 13.9
2020-Jul-07 07:55 035 13.9
2020-Jul-07 07:50 035 13.9
2020-Jul-07 07:40 035 13.9
2020-Jul-07 07:30 035 13.9
2020-Jul-07 07:25 035 13.9
2020-Jul-07 07:20 035 14.4
2020-Jul-07 07:10 035 14.4
2020-Jul-07 07:05 035 14.4
2020-Jul-07 06:55 035 14.4
2020-Jul-07 06:45 035 14.4
2020-Jul-07 06:30 035 14.4
2020-Jul-07 06:25 035 14.4
2020-Jul-07 06:15 035 15.0
2020-Jul-07 06:05 035 15.0
2020-Jul-07 05:50 036 15.0
2020-Jul-07 05:40 036 15.6
2020-Jul-07 05:30 036 15.6
2020-Jul-07 05:20 036 15.6
2020-Jul-07 05:05 036 16.1
2020-Jul-07 04:40 186 16.7
2020-Jul-07 04:25 187 17.2
2020-Jul-07 04:15 187 17.2
2020-Jul-07 04:00 192 17.2
2020-Jul-07 03:50 199 17.8
2020-Jul-07 03:45 200 17.8
2020-Jul-07 03:35 202 17.8
2020-Jul-07 03:25 158 17.8
2020-Jul-07 03:20 169 18.3
2020-Jul-07 03:05 212 18.3
2020-Jul-07 03:00 216 18.9
2020-Jul-07 02:55 240 18.9
2020-Jul-07 02:50 201 18.9
2020-Jul-07 02:30 171 18.9
2020-Jul-07 02:25 219 18.9
2020-Jul-07 02:15 159 19.4
2020-Jul-07 01:45 217 19.4
2020-Jul-07 01:25 220 19.4
2020-Jul-07 01:15 189 20.0
2020-Jul-07 01:05 214 20.0
2020-Jul-07 00:55 214 20.0
2020-Jul-07 00:45 209 20.6
2020-Jul-07 00:35 193 20.6
2020-Jul-07 00:25 211 20.6
2020-Jul-07 00:20 160 20.6
2020-Jul-07 00:10 208 20.6
2020-Jul-07 00:05 199 20.6
2020-Jul-06 23:55 219 20.0
2020-Jul-06 23:45 182 20.0
2020-Jul-06 23:35 211 20.0
2020-Jul-06 23:30 209 20.0
2020-Jul-06 23:20 207 20.6
2020-Jul-06 23:10 197 21.1
2020-Jul-06 22:50 178 21.1
2020-Jul-06 22:40 188 21.1
2020-Jul-06 22:30 195 0 gusting 10 21.1
2020-Jul-06 22:20 143 21.7
2020-Jul-06 22:10 189 2 gusting 7 21.1
2020-Jul-06 22:00 233 0 gusting 9 21.1
2020-Jul-06 21:50 176 21.7
2020-Jul-06 21:45 187 3 gusting 11 21.7
2020-Jul-06 21:35 162 21.1
2020-Jul-06 21:25 160 21.1
2020-Jul-06 21:15 226 21.1
2020-Jul-06 21:00 226 2 gusting 8 21.1
2020-Jul-06 20:55 214 21.1
2020-Jul-06 20:50 152 0 gusting 6 21.1
2020-Jul-06 20:35 175 21.1
2020-Jul-06 20:25 213 20.6
2020-Jul-06 20:20 178 20.6
2020-Jul-06 20:15 294 20.0
2020-Jul-06 20:10 160 20.0
2020-Jul-06 20:05 226 20.0
2020-Jul-06 19:55 216 19.4
2020-Jul-06 19:45 209 20.0
2020-Jul-06 19:30 226 18.9
2020-Jul-06 19:25 199 18.9
2020-Jul-06 19:15 118 19.4
2020-Jul-06 19:10 108 19.4
2020-Jul-06 19:05 174 20.0
2020-Jul-06 18:50 222 1 gusting 8 20.6
2020-Jul-06 18:40 212 20.0
2020-Jul-06 18:35 141 20.0
2020-Jul-06 18:25 166 19.4
2020-Jul-06 18:15 222 18.9
2020-Jul-06 18:05 158 18.9
2020-Jul-06 17:55 178 18.3
2020-Jul-06 17:50 210 18.3
2020-Jul-06 17:45 197 18.3
2020-Jul-06 17:40 172 18.3
2020-Jul-06 17:30 149 18.3
2020-Jul-06 17:25 185 18.3
2020-Jul-06 17:10 189 17.8
2020-Jul-06 17:05 198 17.8
2020-Jul-06 17:00 166 17.8
2020-Jul-06 16:50 166 17.8
2020-Jul-06 16:35 158 17.2
2020-Jul-06 16:25 185 16.7
2020-Jul-06 16:15 199 16.1
2020-Jul-06 16:10 209 16.1
2020-Jul-06 16:00 215 16.1
2020-Jul-06 15:45 172 15.6
2020-Jul-06 15:25 158 15.0
2020-Jul-06 15:05 124 14.4
2020-Jul-06 14:50 122 13.9
2020-Jul-06 14:35 122 13.3
2020-Jul-06 14:20 122 12.8
2020-Jul-06 14:10 122 12.8
2020-Jul-06 14:00 122 12.8
2020-Jul-06 13:50 123 12.8
2020-Jul-06 13:40 123 12.8
2020-Jul-06 13:35 123 12.8
2020-Jul-06 13:25 123 12.8
2020-Jul-06 13:15 123 12.8
2020-Jul-06 13:05 123 12.8
2020-Jul-06 12:50 123 12.8
2020-Jul-06 12:45 123 12.8
2020-Jul-06 12:35 345 12.8
2020-Jul-06 12:30 341 12.8
2020-Jul-06 12:20 360 12.8
2020-Jul-06 12:10 015 12.8
2020-Jul-06 12:00 360 12.8
2020-Jul-06 11:55 010 12.8
2020-Jul-06 11:50 347 12.8
2020-Jul-06 11:40 343 12.8
2020-Jul-06 11:30 024 12.8
2020-Jul-06 11:20 335 12.8
2020-Jul-06 11:15 018 12.8
2020-Jul-06 11:00 360 12.8
2020-Jul-06 10:50 356 12.8
2020-Jul-06 10:40 010 12.8
2020-Jul-06 10:30 010 12.8
2020-Jul-06 10:20 010 12.8
2020-Jul-06 10:15 010 12.8
2020-Jul-06 10:10 360 12.8
2020-Jul-06 10:00 014 13.3
2020-Jul-06 09:50 340 13.3
2020-Jul-06 09:40 336 13.3
2020-Jul-06 09:35 010 13.3
2020-Jul-06 09:20 016 13.3
2020-Jul-06 09:10 033 13.3
2020-Jul-06 08:55 360 13.3
2020-Jul-06 08:40 010 13.3
2020-Jul-06 08:30 360 13.3
2020-Jul-06 08:25 014 13.3
2020-Jul-06 08:15 016 13.3
2020-Jul-06 08:10 346 13.9
2020-Jul-06 08:00 360 13.9
2020-Jul-06 07:50 010 13.9
2020-Jul-06 07:45 010 13.9
2020-Jul-06 07:35 039 13.9
2020-Jul-06 07:25 032 13.9
2020-Jul-06 07:20 360 13.9
2020-Jul-06 07:10 324 13.9
2020-Jul-06 06:50 354 13.9
2020-Jul-06 06:40 360 13.9
2020-Jul-06 06:30 355 13.9
2020-Jul-06 06:25 356 13.9
2020-Jul-06 06:15 016 13.9
2020-Jul-06 06:00 342 13.9
2020-Jul-06 05:55 360 13.9
2020-Jul-06 05:45 026 14.4
2020-Jul-06 05:35 026 14.4
2020-Jul-06 05:20 041 15.0
2020-Jul-06 05:10 041 15.0
2020-Jul-06 05:05 041 15.6
2020-Jul-06 04:45 041 16.1
2020-Jul-06 04:40 041 16.1
2020-Jul-06 04:30 041 16.7
2020-Jul-06 04:20 041 16.7
2020-Jul-06 04:10 041 17.2
2020-Jul-06 04:00 041 17.8